Simultaneous Nadir Overpasses (SNOs) Predictions

Prediction of SNOs between METOP-B and TERRA Satellite Orbit:

Table of predicted SNOs for the next 14.0 days since TLE Epoch: 2/15/2013
Index Date (METOP-B) Time (METOP-B) Lat,Lon (METOP-B) SZA (METOP-B ) Date (TERRA) Time (TERRA) Lat,Lon (TERRA) SZA (TERRA ) Distance(km) Time Diff (sec)
1 02/16/2013 00:10:07 81.27,-136.37 95.84 02/16/2013 00:11:19 81.27,-136.30 95.87 1.06 72
2 02/16/2013 01:00:45 -81.28, 31.77 84.09 02/16/2013 01:00:45 -81.29, 31.64 84.10 2.23 0
3 02/16/2013 01:51:01 81.31,-150.82 97.03 02/16/2013 01:49:48 81.67,-151.44 97.15 42.20 73
4 02/18/2013 19:44:30 81.27, -69.68 94.89 02/18/2013 19:45:40 81.28, -69.65 94.93 0.96 70
5 02/18/2013 20:35:09 -81.28, 98.10 85.08 02/18/2013 20:35:07 -81.28, 97.96 85.09 2.24 2
6 02/21/2013 15:18:54 81.27, -3.43 93.87 02/21/2013 15:20:07 81.27, -3.55 93.89 2.09 73
7 02/21/2013 16:09:33 -81.28, 164.38 86.09 02/21/2013 16:09:33 -81.29, 164.48 86.07 1.93 0
8 02/21/2013 17:00:07 81.31, -25.39 94.23 02/21/2013 16:58:53 81.41, -25.44 94.26 11.10 74
9 02/24/2013 11:43:55 -81.28,-128.99 87.08 02/24/2013 11:44:03 -81.29,-129.18 87.10 3.25 8
10 02/24/2013 12:34:36 81.28, 38.45 92.92 02/24/2013 12:33:29 81.29, 38.60 92.92 2.64 67
11 02/27/2013 07:18:20 -81.27, -63.17 88.18 02/27/2013 07:18:39 -81.27, -63.02 88.16 2.53 19
